OPS 4682 DEB, 38434

Orbit data source: Space-Track

OPS 4682 DEB, 38434 is space debris in LEO originally from a launch on Sat, 03 Apr 1965 UTC launched from the Air Force Western Test Range (AFWTR). Debris objects in space refer to the collection of defunct objects orbiting the Earth. Examples of debris include non-operational satellites, rocket bodies, and fragments generated from explosions, collisions, or faulty payload assembly.

Loading next visibility...
Identifier
38434, 1965-027EP
Orbit
LEO
Country
Flag of USUS
Related business
Manufacturer
Unknown
Mission
Spacecraft
Bus & Motor
Unknown
Mass
Unknown
Launch date (UTC)
1965-04-03 (61 years ago)
Launch vehicle
Unknown
Launch site
Air Force Western Test Range (AFWTR)
Object type
Payload
Rocket body
Debris
Shape & HBR
Unknown shape, 0.1 m
Radar Cross Section
Small (<0.1 m²)

Expand to show TLE details & history
Last TLE update: 1 day ago

TLE from 1 day ago
0 OPS 4682 DEB
1 38434U 65027EP  25348.32423935  .00000363  00000-0  12292-2 0  9995
2 38434  90.2394   1.8369 0030792 329.8269  30.1077 12.97223724638541
Epoch: 2025-12-14T07:46Z
TLE epoch observation values (Epoch: 2025-12-14T07:46:54.279Z)
Latitude
-0.00006°
Longitude
161.87195°
Altitude
1,255.497 km
Speed
7.237 km/s
True Right ascension
00h 07m 20s
True Declination
0° 00' 00"
Sunlit
Object was in daylight at epoch
Visualization orbit readout
Latitude
Unknown
Longitude
Unknown
Altitude
Unknown
Speed
Unknown
Apparent Right ascension
Unknown
Apparent Declination
Unknown
Sunlit
N/A
Visualization observer readout
Local Sidereal Time
16:51:10
Azimuth
Unknown
Elevation
Unknown
Doppler factor
Unknown
Orbital elements
Apogee altitude
1,293.665 km
Perigee altitude
1,246.564 km
Semi-major axis
7,648.252 km
Eccentricity
0.00308
Inclination
90.2394°
RAAN
1.8369°
Arg. of periapsis
329.8269°
True anomaly
30.28529°
Mean anomaly
30.1077°
Eccentric anomaly
30.19644°
Mean motion
3.24489 °/min
Orbital period
110.94 mins
BSTAR
0.0012292
Loading maneuver chart data...
Computing Atmospheric mass density...
Loading historical data...
Loading historical data...
Loading historical data...
Loading historical data...
Loading historical data...
Loading historical data...
Loading historical data...

Documentation

Showing up to 5 results
|